{"data":{"norad_id":60594,"intl_designator":"2024-150M","name":"STARLINK-32210","alt_names":[],"object_type":"PAYLOAD","status":"ACTIVE","operator":null,"country":"US","launch_date":"2024-08-20","launch_site_code":"AFETR","launch_vehicle":null,"mission":null,"orbit_class":"UNKNOWN","rcs_meters":null,"size_class":null,"mass_kg":null,"dimensions":null,"purposes":["comms"],"wikipedia_slug":null,"has_3d_model":false,"image_url":null,"decayed_at":null,"tle_current":{"epoch":"2026-05-24T17:53:03.445728Z","epoch_age_seconds":90980,"freshness":"FRESH","line1":"1 60594U 24150M   26144.74517877  .00000207  00000+0  17275-4 0  9993","line2":"2 60594  53.1617 313.1993 0001091  82.4709 277.6418 15.34388656 99696","mean_motion":15.34388656,"eccentricity":0.0001091,"inclination_deg":53.1617,"raan_deg":313.1993,"arg_perigee_deg":82.4709,"mean_anomaly_deg":277.6418,"bstar":1.7275e-5,"rev_number":9969,"period_min":93.848451913998,"perigee_km":461.99061782475,"apogee_km":463.4832965222,"semimajor_km":6840.8739571735,"source":"CELESTRAK","updated_at":"2026-05-25T13:38:19.280642Z"}}}